Location: ??????
(31.2056°N, 45.3906°E)
Time: 19:47:47
(UTC+00:00)

ATLAS 2AS CENTAUR R/B - Pass Details

Date: 09 April 2020
Orbit: 933 x 1279 km, 63.7° (Epoch: 25 May)

Event Time Altitude Azimuth Distance (km) Brightness Sun altitude
Rises 18:15:35 0° 318° (NW) 4,051 6.7 -34.5°
Reaches altitude 10° 18:18:47 10° 308° (NW) 3,030 5.9 -35.1°
Maximum altitude 18:24:42 29° 252° (WSW) 1,877 4.1 -36.1°
Enters shadow 18:25:34 28° 239° (WSW) 1,893 4.1 -36.2°
